Regional Weather Roundup
Issued by NWS Jackson, KY

Home | Current Version | Previous Version | Text Only | Print | Product List | Glossary On
Versions: 1 2 3 4 5 6 7 8 9 10 11 12 13 14 15 16 17 18 19 20 21 22 23 24 25 26 27
000
ASUS43 KJKL 240610
RWRJKL

EAST KENTUCKY HOURLY WEATHER ROUNDUP
NATIONAL WEATHER SERVICE JACKSON KY
200 AM EDT FRI MAR 24 2017

NOTE: "FAIR" INDICATES FEW OR NO CLOUDS BELOW 12,000 FEET WITH
NO SIGNIFICANT WEATHER AND/OR OBSTRUCTIONS TO VISIBILITY.

* THESE REPORTS ARE NOT UNDER NWS QUALITY CONTROL AND MAY NOT
  REPORT WEATHER SUCH AS PRECIPITATION AND FOG.

KYZ079-080-083-085-087-088-110-112-115-119-120-240700
...EASTERN KENTUCKY...

CITY           SKY/WX    TMP DP  RH WIND       PRES   REMARKS
JACKSON        CLEAR     55  34  45 SW5       30.27F
6HR MIN TEMP:  54; 6HR MAX TEMP:  63;

LONDON         CLEAR     55  36  48 S6        30.28F
6HR MIN TEMP:  54; 6HR MAX TEMP:  62;

SOMERSET*      PTCLDY    55  36  47 S13G20    30.28F
MONTICELLO*    CLEAR     57  39  51 SE12      30.28F
6HR MIN TEMP:  56; 6HR MAX TEMP:  62;

MIDDLESBORO*   CLEAR     56  38  50 S9        30.34S
6HR MIN TEMP:  47; 6HR MAX TEMP:  61;

HARLAN APT*    CLEAR     52  30  43 CALM      30.33F
PIKE CO APT*   CLOUDY    56  30  37 S3        30.29R
BIG SANDY APT* CLOUDY    58  32  37 S8        30.29R
6HR MIN TEMP:  57; 6HR MAX TEMP:  62;

MOREHEAD APT*  CLOUDY    57  32  38 S10       30.25F
ASHLAND*       CLOUDY    48  36  61 E3        30.23S
$$

KYZ035-036-041-042-044-050-067-078-099-240700
...CENTRAL KENTUCKY...

CITY           SKY/WX    TMP DP  RH WIND       PRES   REMARKS
MT STERLING*   CLEAR     54  36  50 S8        30.24F
FLEMING/MASON* PTCLDY    53  35  50 S8        30.22F
DANVILLE*      CLEAR     54  37  54 S10G17    30.24F
LEXINGTON      CLEAR     54  38  54 S12       30.21F
6HR MIN TEMP:  53; 6HR MAX TEMP:  60;

FRANKFORT      CLEAR     56  38  50 S9        30.19F
6HR MIN TEMP:  52; 6HR MAX TEMP:  61; 6HR PCP: TRACE;

LOUISVILLE     MOCLDY    60  38  43 S13       30.17F
6HR MIN TEMP:  55; 6HR MAX TEMP:  62;

LEBANON*         N/A     57  39  51 S14G20    30.21F
GLASGOW*       CLEAR     56  39  52 S12G17    30.21F
BOWLING GREEN  CLEAR     60  42  51 S13G21    30.20F
6HR MIN TEMP:  52; 6HR MAX TEMP:  61;

$$

KYZ091>093-OHZ055-061-077-WVZ005-015-034-035-042-240700
...SOUTHERN OHIO/WEST VIRGINIA...

CITY           SKY/WX    TMP DP  RH WIND       PRES   REMARKS
COVINGTON      PTCLDY    51  34  52 S7        30.17F
COLUMBUS       CLOUDY    51  23  33 SE8       30.20F
DAYTON         MOCLDY    49  33  54 SE10      30.15F
WILMINGTON     MOCLDY    49  33  54 SE3       30.19S
HUNTINGTON     CLOUDY    52  31  44 S5        30.24F
CHARLESTON     CLOUDY    53  24  32 S7        30.28R
PINEVILLE*     CLOUDY    39  28  66 MISG      30.39S
BECKLEY        CLOUDY    43  21  41 SE10      30.34S
BLUEFIELD      CLEAR     43  21  41 S7G16     30.36S
LOGAN CO APT*    N/A     52  23  32 CALM      30.29F
$$

VAZ002-007-008-TNZ017-027-036-066-071-240700
...SOUTHWEST VIRGINIA/EAST TENNESSEE...

CITY           SKY/WX    TMP DP  RH WIND       PRES   REMARKS
WISE*          MOCLDY    50  27  40 CALM      30.35S
JONESVILLE*      N/A     50  32  50 CALM      30.38S
ABINGDON*      PTCLDY    45  28  50 CALM      30.37S
BRISTOL        PTCLDY    50  26  39 S5        30.38R
MORRISTOWN*    MOCLDY    50  32  50 CALM      30.35R
SEVIERVILLE*   CLEAR     45  39  81 CALM      30.35R
KNOXVILLE      CLOUDY    56  37  49 SW10      30.34R
LAFOLLETTE*    MOCLDY    57  37  47 S10       30.36S
OAK RIDGE      CLOUDY    57  35  43 VRB3      30.37R
CROSSVILLE     CLEAR     53  35  50 S12G21    30.32F
NASHVILLE      CLEAR     61  44  53 S13       30.23S
$$

...KEY TO REMARKS...
VSB - VISIBILITY IN MILES
WCI - WIND CHILL INDEX
HX  - HEAT INDEX

$$




USA.gov is the U.S. government's official web portal to all federal, state and local government web resources and services.